ECHOSTAR 3

导读 | 星芒AI

ECHOSTAR 3 是一颗由 Hughes Aircraft Company 设计制造的通信卫星,于1994年发射,用于提供直接到户(DTH)的电视广播服务。该卫星位于西经119度的轨道位置,主要服务于美国地区,支持EchoStar 公司的DirecTV 服务。ECHOSTAR 3 搭载了多个C波段和Ku波段转发器,具备高功率和高灵活性,为用户提供高质量的电视信号传输。作为早期DTH服务的重要组成部分,它在推动卫星电视普及方面发挥了关键作用。

基本信息
目录编号:
25004
目录名称:
ECHOSTAR 3
国际标识:
1997-059A
轨道中心:
EARTH
卫星名称:
ECHOSTAR 3
卫星全名:
--
卫星状态:
在轨 (已飞行10296 天)
发射日期:
1997-10-05 UTC
国别 :
美国 (US)
星等 :
--
轨道信息
数据来源 国际轨道数据 AOE轨道数据
星历时间 2025-12-13T03:54:31+0800
13小时前
查看轨道信息
2025-12-13T05:00:00+0800
12小时前
查看轨道信息
半长轴 42561.622km 42561.794km
偏心率 0.001113 0.0011022
轨道倾角 9.092° 9.092°
近地点辐角 334.060° 334.258°
升交点赤经 57.590° 57.589°
平近点角 93.739° 109.723°
近地点 36136.115km 36136.747km
远地点 36230.859km 36230.571km
周期 1456.421分钟 1456.430分钟
每日圈数 0.988725 0.988719
详细信息
使用方式:
暂无
2D轨道图
3D轨道图
轨道高度分析图
轨道倾角分析图
轨道综合分析图
查看轨道综合分析图